Hourly Data Report for April 02, 2021

KUGAARUK CLIMATE
NUNAVUT
Current Station Operator: ECCC - MSC

68°32'15.060" N
89°47'47.020" W
15.80 m
2303094
71407
NBB

Download Data

Hourly Data (April 2021)
Hourly Data Report for April 2, 2021
TIME
LST
Temp Definition
°C
Dew Point Definition
°C
Rel Hum Definition
%
Precip. Amount Definition
mm

Wind Dir Definition
10's deg

Wind Spd Definition
km/h
Visibility Definition
km
Stn Press Definition
kPa
Hmdx Definition


Wind Chill Definition


Weather Definition


00:00 -32.0 -36.2 66 0.0 23 31   102.52   -48 LegendNANA
01:00 -32.0 -36.2 66 0.0 23 30   102.60   -48 LegendNANA
02:00 -34.7 -38.5 68 0.0 25 21   102.68   -49 LegendNANA
03:00 -33.2 -37.1 68 0.0 24 23   102.71   -48 LegendNANA
04:00 -35.1 -38.7 69 0.0 26 7   102.83   -43 LegendNANA
05:00 -34.9 -38.7 68 0.0 26 14   102.89   -47 LegendNANA
06:00 -35.3 -39.4 66 0.2 15 3   103.00   -39 LegendNANA
07:00 -35.0 -39.5 63 0.0 12 4   103.08   -40 LegendNANA
08:00 -34.9 -40.1 60 0.6 8 4   103.17   -40 LegendNANA
09:00 -34.6 -39.6 60 0.0 6 5   103.20   -41 LegendNANA
10:00 -33.6 -38.6 61 0.0 5 10   103.25   -43 LegendNANA
11:00 -32.6 -37.7 60 0.0 5 11   103.28   -43 LegendNANA
12:00 -30.9 -36.3 59 0.0 5 11   103.31   -41 LegendNANA
13:00 -30.2 -35.3 61 0.0 6 17   103.33   -42 LegendNANA
14:00 -29.1 -33.8 63 0.0 6 17   103.35   -41 LegendNANA
15:00 -28.8 -33.6 63 0.0 5 13   103.35   -39 LegendNANA
16:00 -29.4 -34.0 65 0.0 7 15   103.35   -41 LegendNANA
17:00 -30.8 -34.7 69 0.0 8 11   103.41   -41 LegendNANA
18:00 -32.6 -35.8 73 0.3 5 14   103.42   -44 LegendNANA
19:00 -34.0 -37.2 72 0.0 6 14   103.43   -46 LegendNANA
20:00 -33.5 -36.3 75 0.0 6 11   103.39   -44 LegendNANA
21:00 -33.5 -36.8 72 0.0 7 18   103.35   -47 LegendNANA
22:00 -33.5 -36.8 72 0.0 6 23   103.32   -48 LegendNANA
23:00 -34.5 -38.0 71 0.0 8 9   103.26   -44 LegendNANA

Notes on Data Quality.

Legend

  • E = Estimated
  • M = Missing
  • NA = Not Available*
  • [empty] = Indicates an unobserved value
Date modified: